Temp
8 8 8 8 8 8 8 8 8 8 8 8 8 8 8 8 7 7 8 8 8 8 8 8 7 8 8 8 8 8 7 7 9 8 9 14 17 18 19 19 20 19 19 19 18 19 19 19 19 18 20 20 20 21 21 21 21 22 22 21 21 22 22 22 23 23 23 25 25 24 23 24 25 24 23 24 25 24 23 22 22 22 22 23 22 21 20 19
8 8 8 8 8 8 8 8 8 8 8 8 8 8 8 8 8 7 8 7 8 8 8 7 7 8 8 8 8 7 7 8 8 8 12 17 18 19 19 19 19 19 19 19 18 18 19 19 18 18 20 20 20 20 21 21 21 22 21 21 22 22 22 22 23 23 23 25 25 25 24 23 24 24 23 23 23 23 23 22 22 21 21 21 21 20 20 19
8 8 8 8 8 8 8 8 8 8 8 8 8 8 8 8 8 7 8 7 8 8 7 7 7 7 8 8 7 7 7 7 10 13 16 18 18 18 19 18 18 18 18 19 19 19 20 20 19 19 20 20 20 20 20 21 21 21 21 22 22 22 22 21 22 23 23 24 24 24 24 24 24 24 24 23 22 24 23 22 21 21 20 20 20 20 20 19
8 8 8 8 8 8 8 8 8 8 8 8 8 7 8 7 7 7 8 8 7 7 7 7 7 7 8 7 7 8 7 9 14 16 16 17 17 18 18 19 18 18 18 18 19 19 19 19 19 20 20 20 19 19 20 21 21 21 21 22 22 21 22 23 22 23 23 23 23 24 24 25 25 24 24 23 23 24 24 23 22 21 20 19 20 20 20 20
7 8 8 7 8 8 8 8 8 8 8 8 8 7 7 7 7 7 7 8 7 7 7 7 7 7 8 7 8 7 8 14 17 15 15 16 17 18 18 19 18 18 17 18 19 18 18 18 19 19 20 20 19 20 21 21 21 21 21 22 22 21 22 24 23 23 23 22 23 23 24 25 25 24 24 24 24 24 24 24 23 22 21 20 20 20 20 20
7 7 7 7 7 8 8 8 8 8 8 8 8 7 7 7 7 7 7 7 7 7 7 7 7 7 7 7 7 7 9 16 16 14 15 16 17 18 18 19 19 17 16 18 18 18 18 19 20 20 20 20 20 20 21 20 21 22 21 21 21 22 22 23 23 24 23 23 23 24 24 24 24 24 24 24 24 24 24 24 23 22 21 20 21 20 20 20
6 7 7 7 7 7 7 8 8 8 8 8 8 7 8 7 7 7 7 7 7 7 7 7 7 7 7 7 8 7 9 13 14 14 15 15 17 18 18 19 18 16 16 17 18 18 18 19 20 19 20 20 20 20 21 20 20 21 22 21 22 22 22 23 23 23 23 22 23 23 23 23 24 24 23 23 23 22 23 23 23 22 21 20 20 20 20 20
6 6 6 7 7 7 7 7 8 8 8 8 8 8 7 7 7 7 7 7 7 7 7 7 7 7 7 7 7 8 8 11 14 15 15 16 16 16 17 16 16 15 16 18 19 19 19 19 20 19 20 21 20 20 21 21 21 21 22 21 22 22 22 23 22 22 22 22 22 22 22 23 23 23 23 22 22 22 23 23 22 21 20 20 20 20 20 20
6 6 6 6 6 7 7 7 7 7 8 8 8 7 7 7 7 7 7 7 7 7 7 7 7 7 7 7 7 8 11 13 15 15 15 16 16 15 15 15 14 15 17 18 19 19 19 20 20 19 21 20 20 21 20 21 21 21 22 22 23 23 23 22 22 23 22 22 22 22 22 22 22 23 23 22 23 23 22 22 21 20 19 20 20 20 20 20
6 6 6 6 6 6 7 7 7 7 7 7 8 7 7 7 7 7 7 7 7 7 7 7 7 7 6 7 7 9 13 14 15 15 15 16 16 16 16 15 15 15 17 18 18 19 20 20 20 20 20 20 20 20 20 21 22 22 22 22 22 23 22 22 23 23 22 22 23 23 23 22 22 23 23 23 23 23 22 21 20 20 20 20 20 19 20 20
6 6 6 6 6 6 6 7 7 7 7 7 7 7 7 7 7 7 7 7 7 7 7 7 7 7 6 7 6 9 14 14 14 15 15 15 16 16 16 15 15 16 17 18 18 19 20 20 19 20 21 21 20 20 20 21 21 22 22 22 22 22 22 22 23 23 22 23 23 24 23 22 23 23 24 23 23 23 22 21 20 20 20 20 20 19 19 20
6 6 6 6 6 6 6 6 7 7 7 7 7 7 7 7 7 7 7 7 6 6 6 7 7 7 6 7 6 9 14 14 14 14 15 15 15 16 16 15 15 16 17 18 18 19 20 20 19 20 21 21 21 20 21 21 21 21 21 23 23 23 24 23 24 23 23 24 23 24 23 23 24 23 23 23 23 23 22 21 21 21 20 20 20 19 20 20
6 6 6 6 6 6 6 6 6 6 7 7 7 7 7 7 7 7 7 7 6 6 6 6 6 6 6 6 7 9 13 13 13 14 15 15 15 16 16 15 15 16 17 18 18 19 20 20 20 21 19 20 21 20 21 21 21 21 21 23 23 23 24 23 23 22 24 24 23 24 23 23 24 22 23 23 23 23 22 22 22 21 21 20 19 19 19 20
6 6 6 6 6 6 6 6 6 6 6 7 7 7 7 7 7 7 7 7 7 6 6 6 6 6 6 7 8 10 12 12 12 13 14 14 14 15 17 16 16 16 17 18 18 19 20 19 20 20 19 20 21 20 21 21 21 22 22 22 22 22 23 23 22 22 25 23 22 25 23 23 23 21 22 23 23 23 22 22 22 22 21 20 19 19 19 19
6 6 6 6 6 6 6 6 6 6 6 6 6 7 7 7 7 7 7 7 7 6 6 6 6 6 6 6 9 11 11 10 11 13 14 14 14 15 17 17 16 17 17 18 19 19 19 19 19 20 19 19 20 21 21 21 21 21 21 21 21 21 22 24 21 22 25 23 22 24 24 23 23 22 22 22 22 23 23 23 22 21 21 20 19 19 19 19
6 6 6 6 6 6 6 6 6 6 6 6 6 7 7 7 7 6 6 7 7 6 6 6 6 6 6 8 10 11 11 11 12 14 15 15 15 16 16 17 17 16 17 18 18 18 18 19 19 19 20 20 20 21 21 21 21 20 21 21 21 21 22 23 22 21 23 23 23 24 24 23 23 22 20 18 19 19 21 23 22 21 21 20 19 19 19 19
6 6 6 6 6 6 6 6 5 5 6 6 6 6 7 7 7 6 6 6 6 6 6 6 6 6 7 9 11 12 12 12 13 14 14 15 15 16 17 17 16 16 17 17 18 18 18 18 19 18 19 19 20 21 20 20 20 20 21 21 20 21 21 22 23 22 22 24 24 24 25 24 23 22 18 17 18 17 20 23 22 22 22 21 20 19 19 19
6 6 6 6 6 5 6 6 6 5 6 6 6 6 7 7 6 6 6 6 6 6 6 6 6 7 9 10 10 11 12 12 13 13 14 15 15 16 17 17 16 17 17 17 17 18 17 18 18 19 19 18 19 20 20 20 20 20 20 21 20 20 21 21 23 23 22 24 24 24 24 23 22 21 18 19 19 19 20 20 20 21 22 21 20 19 19 19
6 6 6 6 5 5 5 6 5 5 5 6 6 6 6 6 6 5 5 6 6 6 7 6 6 9 11 10 10 11 11 12 13 13 15 15 15 15 16 17 17 17 18 17 17 17 17 17 17 18 18 18 19 20 21 20 21 21 20 21 21 21 21 21 22 22 22 24 25 24 25 23 22 21 20 20 20 20 20 18 19 20 21 21 20 19 19 19
5 6 5 5 5 5 5 5 5 5 5 5 5 6 6 6 6 5 5 5 6 8 8 7 7 9 10 10 10 10 11 12 13 13 14 15 15 15 16 17 17 17 18 17 17 17 18 18 17 18 19 19 20 20 21 20 20 21 20 21 21 21 22 21 22 22 21 23 24 23 23 22 22 22 21 20 20 20 21 20 20 19 20 20 20 20 19 19
5 6 5 5 5 5 5 5 5 5 5 5 5 5 6 6 6 6 5 5 7 8 8 8 8 8 10 10 10 9 10 11 12 13 14 15 15 16 16 17 17 17 17 17 17 17 17 18 18 18 19 19 19 19 20 19 20 21 21 21 20 21 22 21 22 21 21 23 22 21 22 22 22 22 21 20 20 20 21 21 21 20 20 19 19 19 19 18
5 5 5 5 5 5 5 5 5 5 5 5 5 5 6 7 6 6 6 6 7 7 7 8 8 7 8 9 9 9 9 9 11 13 15 15 15 17 17 17 17 17 16 17 17 16 17 17 18 17 17 18 17 17 19 20 20 20 20 21 21 21 21 21 21 21 21 23 22 21 22 22 22 22 21 20 20 21 21 21 21 20 20 18 17 17 17 17
5 5 5 4 5 5 5 5 5 5 5 5 5 6 6 6 6 6 6 6 7 8 7 7 7 7 7 8 9 9 9 9 11 13 14 15 15 16 17 17 17 16 16 17 17 17 16 17 17 16 16 17 17 17 19 20 20 20 20 21 21 20 20 21 22 21 20 22 22 22 22 21 21 21 20 20 20 20 20 19 20 20 20 18 17 17 17 17
5 5 4 4 4 4 4 4 4 4 5 5 5 6 6 6 6 6 5 6 7 7 7 7 7 7 8 9 9 9 9 10 11 12 14 15 15 16 17 17 17 16 16 17 18 17 17 18 17 16 17 18 17 17 18 20 19 19 20 21 21 20 20 21 21 21 21 21 21 22 22 20 20 21 20 20 20 20 20 19 19 19 19 18 18 18 17 17
4 4 4 4 4 4 4 4 4 5 5 5 5 5 6 5 6 5 5 6 7 7 8 8 8 8 9 9 10 10 10 10 11 13 14 15 16 16 16 17 17 17 16 16 17 18 18 17 16 16 18 19 18 17 18 20 20 19 19 20 21 21 21 21 21 22 22 21 21 21 21 20 19 20 21 20 19 20 20 19 19 19 19 19 19 18 17 17
4 4 4 4 4 4 4 4 5 5 5 5 5 5 5 5 5 5 5 6 7 8 8 8 9 10 10 10 10 11 11 11 12 13 13 15 16 17 16 17 17 16 16 16 17 18 17 15 16 18 18 18 18 18 18 19 20 19 19 20 20 21 21 21 21 21 21 21 20 20 21 21 19 20 21 21 20 20 20 20 20 19 19 19 19 18 17 17
4 4 4 4 4 4 4 4 5 4 5 5 5 5 5 5 5 5 6 6 8 9 8 8 10 11 11 10 11 12 12 13 13 13 13 14 16 17 17 17 17 16 15 16 17 17 16 15 16 18 18 18 19 18 17 19 20 20 19 19 20 21 21 21 21 21 21 21 20 20 21 21 20 20 20 20 21 21 20 19 20 19 19 19 19 18 18 17
4 4 4 4 4 4 4 4 4 4 5 5 5 5 5 5 5 5 6 7 9 11 10 9 10 12 11 11 12 13 13 14 14 13 14 15 15 17 17 17 17 16 16 17 17 16 16 16 16 17 18 18 19 19 18 19 21 20 19 19 20 21 21 21 22 21 20 21 20 21 21 21 21 20 19 20 20 21 20 20 20 19 19 20 19 19 18 17
4 4 4 4 4 4 4 4 4 5 5 4 5 5 5 5 5 5 7 8 10 12 12 11 11 11 10 10 11 13 14 14 15 14 14 15 15 16 16 17 18 17 16 18 18 17 17 17 17 18 18 18 19 19 18 19 21 19 18 19 20 20 20 20 21 21 20 20 20 21 21 21 21 19 19 20 20 21 21 21 21 20 19 20 19 19 19 17
4 4 4 4 4 4 4 4 4 5 4 4 5 4 4 5 5 6 7 8 11 12 12 12 11 11 10 10 10 12 13 14 14 14 14 15 15 15 16 17 18 17 16 18 18 17 17 17 18 18 18 19 19 18 18 20 20 18 18 20 20 19 19 19 20 20 20 20 20 21 21 21 21 20 20 20 21 22 22 22 22 21 19 19 19 19 18 17
4 4 4 4 4 4 4 4 4 4 4 4 5 4 4 5 6 7 8 9 10 11 11 11 11 11 10 10 10 11 12 13 14 14 15 15 15 15 16 17 17 17 16 17 18 17 17 17 17 18 18 18 18 17 18 19 19 19 20 21 20 19 20 20 19 20 20 20 20 19 20 21 21 20 21 21 22 23 23 22 21 20 19 19 19 19 18 18
4 4 4 4 4 4 4 4 4 4 4 4 4 3 5 6 6 7 9 10 9 9 11 11 10 10 10 11 11 11 12 13 14 15 15 15 15 15 17 17 17 16 15 16 17 17 17 17 17 18 18 19 19 18 18 18 18 20 21 20 20 20 19 19 20 19 19 20 19 18 19 20 21 22 22 21 22 23 23 23 22 20 20 19 19 18 18 18
4 4 4 4 4 4 4 4 4 4 4 4 3 4 5 6 7 8 9 9 8 8 10 11 10 11 11 11 11 12 13 14 14 15 15 16 15 15 17 17 17 17 15 16 17 16 17 17 17 17 18 19 20 19 18 18 19 20 21 20 20 19 18 18 18 18 19 20 18 18 19 20 21 22 20 19 21 21 21 22 22 21 20 20 19 18 18 18
4 4 4 4 4 4 4 4 4 4 4 4 4 5 6 6 8 9 9 8 8 8 9 10 10 11 11 11 12 12 13 13 14 15 15 15 15 16 16 16 17 17 16 16 16 16 16 16 17 18 18 19 20 20 19 19 19 20 20 21 21 20 19 19 19 19 20 20 18 18 20 20 21 20 18 17 18 18 19 22 22 21 21 20 19 18 18 18
4 4 4 4 4 4 4 4 4 4 4 4 5 5 6 7 8 8 7 7 8 8 9 10 10 11 11 11 12 13 13 13 14 15 15 15 15 16 16 16 16 17 17 16 16 16 17 16 18 18 18 19 20 19 19 20 19 19 19 20 20 21 21 19 18 19 19 20 19 18 19 20 20 20 18 17 17 18 20 21 21 21 20 19 19 18 18 18
4 5 4 4 4 4 4 4 4 4 4 4 5 6 7 7 7 7 6 6 7 7 8 10 11 11 10 11 12 13 13 14 14 15 14 15 16 16 16 16 16 17 18 17 15 16 17 17 17 17 18 19 20 19 19 20 20 18 19 20 19 20 21 19 17 16 18 20 19 18 19 19 20 20 18 17 18 18 20 21 21 20 19 19 18 18 17 16
5 5 5 4 4 4 4 4 4 4 4 5 6 7 7 7 6 6 6 6 6 7 8 10 11 11 11 11 12 13 14 14 14 14 14 15 15 15 16 16 16 17 18 17 16 16 17 17 17 17 18 19 19 20 20 20 20 19 19 20 19 19 20 20 19 17 18 20 19 17 19 20 20 20 18 18 18 19 19 20 20 19 19 18 17 16 15 15
5 5 5 5 4 4 4 4 4 4 4 5 6 7 8 7 6 6 6 6 6 7 8 9 11 11 11 12 12 13 14 14 14 14 14 14 15 15 16 16 16 17 18 19 18 16 17 18 17 18 19 19 18 20 19 19 19 20 20 21 20 20 19 19 19 19 19 19 18 17 18 19 20 20 18 19 19 19 19 20 19 19 18 18 16 16 16 16
4 5 5 5 5 4 4 4 4 4 5 6 7 7 7 7 6 6 5 6 7 8 8 9 9 10 11 12 12 13 14 14 14 14 14 15 15 15 17 17 16 17 18 19 19 17 17 18 17 18 19 19 19 19 19 18 18 19 20 20 20 20 20 19 19 20 20 19 18 18 18 18 21 21 20 20 20 19 19 19 19 18 17 17 17 16 16 16
5 5 5 5 5 5 4 4 4 5 6 6 7 7 7 7 6 6 6 6 7 8 8 8 9 9 10 12 13 14 14 14 15 15 15 15 15 15 16 17 17 17 17 19 18 17 17 17 17 17 17 18 19 19 19 19 19 19 20 19 19 19 20 20 19 19 20 19 18 18 18 19 21 20 20 21 20 20 20 19 19 18 17 17 17 17 16 16
4 5 5 5 5 5 4 4 5 6 6 7 7 7 7 7 7 6 7 7 7 8 9 9 9 9 9 11 13 14 14 14 15 15 15 16 15 15 16 17 18 17 16 18 18 17 17 17 17 17 17 18 19 19 20 20 20 21 20 19 20 20 20 20 19 18 19 19 18 18 19 21 20 17 18 20 21 20 20 20 19 18 17 17 16 16 16 15
4 5 5 6 5 5 5 5 6 6 6 7 7 7 7 7 7 6 7 7 7 8 9 8 9 9 9 10 12 14 15 15 15 15 15 16 16 16 16 17 18 18 17 18 18 17 17 18 18 17 17 18 19 18 19 21 21 21 21 20 20 20 20 21 19 18 18 18 17 18 20 21 18 15 16 19 20 20 20 19 18 17 17 16 16 16 15 15
5 5 6 6 6 5 5 6 6 6 6 7 7 7 7 7 6 6 7 7 7 8 8 9 9 9 10 10 11 14 15 15 15 16 15 16 17 17 17 17 18 18 18 18 18 17 17 18 18 18 18 18 18 18 19 21 21 20 20 20 20 20 21 21 20 20 19 18 18 19 20 20 18 16 16 19 20 20 19 18 17 16 16 15 15 15 15 14
4 5 6 6 6 6 6 6 6 6 6 7 7 7 7 7 6 7 7 7 8 8 8 9 10 10 11 11 12 13 15 15 15 16 16 16 17 16 16 17 18 19 18 18 18 18 17 17 17 18 18 17 18 18 18 19 20 20 20 20 20 21 20 19 19 20 20 19 20 20 21 20 18 16 18 19 19 19 18 17 16 16 15 15 14 14 14 14
4 5 5 6 7 7 6 6 5 6 6 7 7 7 7 7 7 7 7 7 8 8 8 9 10 10 10 11 12 13 14 15 15 15 16 16 16 15 15 17 18 19 19 19 19 19 18 17 17 18 17 17 17 18 17 18 19 19 19 19 20 20 20 20 19 20 20 19 19 21 21 19 16 16 18 19 19 18 17 16 16 15 15 15 14 14 14 13
5 5 6 6 7 6 6 6 5 5 6 6 6 7 7 7 7 7 7 7 8 8 8 9 9 10 10 10 12 13 14 15 15 15 16 16 16 15 15 17 18 19 19 19 19 19 18 17 18 19 18 18 18 18 17 18 19 19 19 19 20 20 20 21 20 20 20 19 19 21 21 19 17 17 18 18 17 17 16 15 15 15 14 14 14 14 14 13
5 5 5 6 6 6 6 6 5 5 6 6 6 7 7 7 7 8 8 8 9 8 8 9 9 10 11 12 13 14 14 14 15 16 16 16 16 15 15 16 17 18 19 19 19 19 18 17 17 18 18 17 18 17 15 17 19 20 20 19 19 19 20 20 20 20 20 19 20 20 19 19 19 17 17 18 17 16 16 15 15 14 14 14 14 14 14 13
6 5 5 5 6 6 6 6 6 6 6 6 6 6 7 7 7 8 8 9 9 9 9 9 9 10 11 12 13 14 13 14 14 15 16 16 16 15 15 16 16 18 18 18 19 19 19 18 17 17 17 15 15 15 15 16 18 19 20 20 19 19 19 20 20 20 20 21 22 21 19 20 21 18 17 18 17 16 16 15 15 14 14 14 13 13 13 13
5 5 5 6 6 5 6 6 6 6 6 6 6 6 7 7 7 8 9 9 9 10 10 10 10 11 11 12 13 13 13 14 14 14 14 15 16 16 16 16 16 17 18 18 18 18 19 19 17 17 17 15 14 15 15 16 17 18 19 19 19 19 19 20 20 19 19 21 20 19 19 20 19 18 18 18 18 17 16 15 15 14 14 14 13 13 13 13
5 5 5 5 5 5 5 5 5 6 6 7 7 7 7 7 8 9 9 9 10 10 10 10 11 11 11 12 13 12 12 13 14 14 14 15 16 16 16 17 16 16 17 18 17 17 18 18 17 17 18 16 15 15 15 16 17 17 17 17 18 19 18 19 19 16 18 19 17 17 19 19 18 18 18 17 16 16 15 14 15 14 14 14 13 13 13 13
4 5 5 5 6 6 6 6 6 6 7 7 7 7 7 8 8 9 9 10 10 10 10 10 10 11 11 11 12 12 11 12 13 13 13 14 15 15 16 17 17 17 17 17 18 18 18 17 16 18 19 17 15 15 15 16 16 17 16 15 17 18 17 18 17 16 18 19 16 17 20 20 18 17 17 16 15 15 14 14 14 14 14 14 14 14 13 13
4 5 5 5 6 7 6 6 7 7 8 8 8 8 9 9 9 9 10 11 11 11 10 10 11 11 11 11 11 11 12 12 12 13 12 13 13 13 13 14 16 17 18 17 17 17 18 18 16 18 19 17 15 16 17 17 17 18 16 14 15 16 16 16 16 15 17 19 18 20 21 19 17 16 16 15 15 15 15 15 14 14 14 14 15 14 14 13
Height
811 810 810 810 810 810 809 809 808 808 808 807 807 806 805 804 803 802 802 801 800 799 798 796 795 794 792 791 789 787 785 782 778 778 774 764 764 768 767 768 769 770 771 772 773 774 774 774 774 775 775 776 777 777 778 778 779 782 787 794 793 790 789 785 784 783 780 778 776 776 777 777 774 770 767 765 767 769 773 775 773 773 772 772 773 775 779 784
810 809 809 808 808 808 808 807 807 806 806 806 805 805 804 803 803 802 801 800 799 798 797 796 795 793 792 791 789 787 784 781 778 774 765 761 764 765 765 767 768 768 770 771 772 773 773 774 774 775 775 776 778 777 778 778 778 782 789 793 787 784 784 781 780 780 779 777 774 774 776 776 773 771 768 771 774 771 775 779 777 778 777 775 776 778 781 784
809 808 808 807 806 806 806 806 806 805 805 804 804 803 803 802 802 801 800 799 798 797 796 795 794 793 791 790 788 786 783 780 775 767 760 760 762 761 762 764 765 766 769 770 771 772 772 772 772 774 775 777 778 778 779 778 778 780 787 789 783 781 782 780 780 779 777 776 775 774 774 774 771 769 768 773 777 773 774 777 778 779 778 778 778 778 781 785
808 807 806 806 805 805 804 804 804 804 803 803 802 802 801 801 801 800 799 798 797 797 795 795 794 792 791 789 788 785 784 779 767 760 759 760 759 760 760 760 762 764 766 769 770 771 771 771 771 773 775 778 779 779 779 777 778 780 782 782 779 781 781 778 778 776 775 775 776 775 774 773 769 768 769 772 778 777 772 771 772 774 773 775 777 778 781 785
807 806 805 805 804 803 803 802 802 802 801 801 801 800 800 800 799 798 798 797 796 796 795 794 793 792 791 789 787 786 785 773 759 757 758 758 758 759 759 758 759 760 764 767 769 770 770 770 771 773 775 777 780 779 778 775 776 780 779 778 778 781 780 775 775 774 774 775 775 776 775 772 769 768 769 770 775 775 770 767 769 771 772 772 774 777 781 784
806 805 804 803 803 802 801 800 800 800 799 799 799 799 799 798 798 797 797 796 796 795 794 793 792 792 789 788 786 786 782 765 754 758 757 757 757 756 756 755 756 758 762 765 767 769 770 770 771 773 775 776 779 777 776 775 775 778 778 777 777 777 777 774 773 773 773 775 775 774 772 770 771 770 767 767 769 768 765 764 766 771 774 775 775 778 781 784
804 803 803 802 801 801 800 799 798 798 797 797 797 797 797 797 796 796 795 795 794 793 793 792 792 791 789 788 785 785 784 765 754 758 756 757 756 755 754 753 753 756 759 763 765 767 768 770 770 772 774 775 777 776 774 775 776 778 778 777 775 775 776 774 772 772 772 774 772 771 771 771 772 770 767 768 768 765 763 762 765 771 776 778 779 779 781 784
803 802 801 800 800 799 798 797 796 796 795 795 795 795 795 795 795 795 794 793 793 792 792 791 792 791 788 788 786 786 782 764 754 757 757 757 756 754 754 753 754 755 757 760 761 764 767 768 769 771 773 774 775 774 774 775 777 777 777 776 773 773 773 772 772 772 772 772 770 771 772 770 769 767 768 770 768 765 763 763 766 772 777 778 779 780 782 785
802 801 800 799 798 797 796 795 795 794 793 793 792 793 793 793 793 793 793 792 791 791 791 791 791 790 789 788 789 785 770 756 755 757 756 756 756 755 755 755 755 755 756 758 759 762 764 766 767 768 770 771 772 772 772 775 777 774 773 774 772 771 770 771 772 770 770 770 769 771 772 770 766 766 769 769 766 765 765 766 768 772 777 779 780 782 783 785
801 799 798 797 796 796 795 794 793 792 792 791 790 791 791 791 791 791 791 791 791 790 789 790 789 789 790 787 790 781 759 753 756 755 755 756 756 756 755 755 756 756 755 757 759 760 760 762 763 764 766 769 770 771 772 773 772 770 771 772 771 771 770 771 770 768 769 768 766 769 772 770 765 767 772 767 764 765 767 770 771 772 777 779 781 783 784 786
799 797 797 795 795 794 793 792 791 791 790 789 789 789 788 789 789 789 790 790 789 789 789 788 788 789 788 788 791 778 755 754 755 753 755 755 755 756 755 755 755 755 755 755 757 757 758 760 761 764 766 767 769 772 771 769 768 769 770 771 771 770 770 771 769 768 768 766 764 766 771 770 766 768 770 765 763 764 767 771 772 774 777 779 781 783 784 787
796 795 795 794 793 792 791 790 789 789 788 787 787 786 787 787 787 787 787 788 788 788 788 787 788 787 786 787 783 767 753 754 755 754 754 754 755 755 754 755 755 755 754 754 756 757 759 760 760 764 765 765 768 772 769 767 768 769 770 771 770 768 768 768 766 766 766 764 761 764 772 774 770 770 766 762 762 763 767 771 772 775 777 779 781 783 785 787
794 793 792 791 791 790 789 788 787 787 786 786 785 785 785 784 785 786 785 786 787 786 786 786 786 785 787 783 768 758 756 755 754 753 752 753 754 753 754 754 754 756 755 754 755 757 759 760 760 763 764 765 767 769 766 766 768 769 770 771 771 772 770 765 765 766 764 764 759 762 775 776 772 771 765 761 762 764 768 770 771 774 776 779 782 783 785 787
792 791 790 789 789 788 787 786 786 785 784 784 783 783 782 782 783 783 783 784 785 786 785 785 785 784 785 775 759 756 757 754 753 750 750 753 754 753 753 753 754 755 756 756 756 757 759 760 762 763 764 765 765 765 767 768 769 770 772 774 777 779 773 764 766 766 762 764 760 762 773 775 773 772 765 762 762 763 767 768 770 773 776 779 782 784 786 787
789 788 787 787 786 786 785 784 784 783 782 782 781 781 780 780 781 781 782 782 783 784 783 784 784 783 784 771 757 755 755 753 750 747 748 752 753 753 752 752 753 754 756 756 756 758 759 760 762 765 765 764 765 767 770 771 771 773 776 780 782 781 773 764 766 765 762 764 762 764 771 775 775 771 765 765 765 765 766 768 771 774 777 780 782 785 787 788
785 785 784 784 783 783 782 782 782 781 780 780 779 779 778 778 778 780 780 780 782 782 782 784 781 783 783 768 755 753 752 751 748 747 749 749 750 752 751 751 752 754 755 756 756 757 759 761 763 765 764 765 767 769 773 775 776 776 777 781 782 779 774 768 766 765 763 764 764 765 769 774 774 769 770 775 776 778 773 770 773 776 778 780 783 785 787 789
782 781 781 781 780 780 780 779 779 779 778 778 777 776 776 776 776 777 778 779 780 780 782 781 781 784 776 759 752 751 750 749 747 747 747 747 748 749 750 751 752 753 755 756 757 758 760 762 764 765 765 768 768 769 777 783 782 780 778 779 783 781 777 772 767 764 763 762 765 766 766 771 771 770 777 779 780 784 779 774 776 778 778 780 783 786 787 789
779 778 778 777 777 777 777 777 777 777 776 776 775 775 774 774 774 775 776 777 778 779 781 780 783 781 764 754 755 751 749 749 747 747 746 745 746 747 749 750 751 752 754 757 758 759 762 763 765 766 768 770 769 769 777 781 779 779 778 777 780 781 779 776 770 765 764 761 765 768 768 773 773 774 780 777 775 779 781 782 781 780 780 782 784 786 788 789
776 775 774 774 774 774 774 774 775 775 774 774 773 773 773 773 773 773 773 775 776 777 776 774 777 769 753 752 755 750 749 748 746 745 744 744 745 747 748 748 750 751 753 758 760 759 761 765 768 768 768 770 768 766 769 772 771 773 776 773 774 775 775 776 771 767 767 763 765 767 768 774 776 775 778 777 775 776 781 787 784 782 782 783 786 787 788 790
774 772 772 771 770 771 771 772 772 772 772 772 772 772 772 772 773 772 772 772 769 767 766 766 767 761 752 752 752 750 749 746 745 744 743 743 744 746 748 748 749 751 753 756 759 759 759 764 766 763 764 765 765 764 765 769 770 772 776 775 775 774 771 773 771 767 768 765 768 771 770 775 774 773 775 775 778 778 779 783 783 783 782 782 786 788 790 792
771 770 768 767 767 768 768 769 770 770 770 770 770 770 768 768 769 769 768 768 764 762 762 761 762 760 754 752 752 753 753 749 745 743 742 742 743 744 746 747 749 752 753 753 757 760 760 762 762 760 761 762 764 767 767 771 773 772 774 775 777 776 771 774 773 769 768 765 771 777 775 776 773 772 775 776 779 780 777 779 780 782 784 785 788 791 792 794
769 767 765 764 764 764 765 766 767 767 768 768 768 767 765 764 765 765 766 766 761 759 760 760 761 760 754 751 752 755 759 756 746 740 740 741 741 741 743 745 747 751 755 754 757 762 763 762 760 761 763 765 769 771 768 770 772 773 775 776 776 776 774 774 771 770 769 765 773 778 775 778 776 773 776 777 779 779 777 779 779 782 786 789 792 796 799 798
767 765 763 762 761 762 763 764 764 765 765 766 766 764 763 763 764 764 766 766 759 755 756 757 758 757 752 749 750 755 758 756 749 740 738 739 740 739 740 744 745 749 754 753 753 760 764 760 759 764 765 766 773 774 770 770 773 773 775 776 776 777 778 774 771 773 773 769 773 775 777 785 783 779 781 780 780 780 780 782 781 782 785 789 791 795 802 804
765 763 762 760 760 761 761 762 762 763 763 763 763 762 762 762 763 764 766 766 759 752 749 748 750 750 746 744 746 751 752 750 747 740 736 737 738 738 738 740 744 749 751 749 750 755 757 755 758 764 762 762 770 775 771 770 775 777 775 773 773 776 777 775 774 773 773 775 774 772 780 790 789 785 785 782 781 782 782 784 785 784 785 788 790 791 796 802
763 762 760 759 760 759 761 762 760 760 761 761 761 760 762 761 762 764 766 765 758 750 745 744 746 742 737 741 744 745 748 746 741 737 735 735 735 736 738 738 741 746 749 751 752 753 754 756 758 762 761 760 766 773 770 767 773 779 776 772 770 773 775 776 775 772 773 779 779 777 783 791 793 789 784 782 784 785 784 785 787 787 787 788 791 793 794 796
761 761 759 758 758 758 760 760 759 759 759 759 759 758 760 760 761 763 765 764 753 742 741 740 737 730 727 736 740 742 746 739 732 732 734 734 733 733 737 738 738 745 749 750 752 752 755 758 757 758 761 762 765 770 769 765 771 778 773 770 771 772 775 776 775 775 778 781 782 780 780 788 797 792 783 781 784 785 786 787 786 788 789 788 790 793 795 797
760 759 758 757 757 758 759 758 758 758 758 758 757 757 759 758 762 762 762 764 747 730 734 737 730 723 722 730 733 737 738 728 725 730 730 731 732 730 735 737 738 745 748 748 753 753 754 760 759 757 759 762 763 767 769 766 768 773 769 768 773 772 775 776 775 778 780 781 782 779 776 783 791 790 785 783 783 784 787 789 786 786 788 788 788 790 793 795
758 758 757 757 757 757 757 757 757 757 757 757 756 758 758 757 761 762 759 757 738 719 724 730 726 721 722 727 728 727 725 720 722 727 727 729 731 729 733 735 735 742 744 745 752 753 752 758 760 758 759 761 760 760 765 765 764 768 768 769 769 769 772 773 773 779 782 783 784 780 779 783 786 788 789 787 786 785 785 785 783 784 786 786 787 790 791 793
757 756 756 756 756 756 757 757 757 757 757 757 757 758 758 758 761 760 757 746 724 712 716 719 721 723 724 729 728 722 720 719 720 722 726 728 729 730 732 733 733 740 743 741 746 751 750 750 752 754 757 758 757 758 761 761 761 764 768 769 769 771 775 775 776 780 785 790 788 781 780 783 786 790 791 789 788 784 778 776 776 779 784 784 785 788 790 792
755 755 756 755 755 756 756 756 756 756 756 757 757 758 758 759 758 756 755 740 718 711 715 716 719 723 726 731 731 725 721 720 719 722 726 727 728 730 730 731 732 738 744 742 743 748 748 747 749 750 752 752 754 759 759 757 759 764 768 769 772 777 778 781 782 781 789 795 787 780 779 781 786 788 787 783 775 769 768 770 772 777 782 783 783 786 789 790
754 754 755 755 755 755 755 755 755 755 756 756 756 758 759 757 755 750 743 731 720 717 716 718 721 722 726 728 727 727 724 722 720 720 724 725 729 731 729 732 734 740 748 746 745 748 749 751 752 749 748 749 754 761 762 760 760 762 763 765 775 782 781 784 787 788 795 795 786 785 784 783 785 781 776 771 761 757 760 764 769 775 778 779 781 784 787 788
754 754 754 754 754 754 755 755 755 755 756 755 756 758 757 755 755 747 732 723 726 726 718 719 723 722 724 723 720 723 723 721 719 718 719 722 727 728 724 726 730 739 749 747 747 751 750 751 751 749 747 747 752 760 765 765 762 759 760 765 776 786 790 793 792 792 795 789 788 793 788 785 781 769 765 765 758 756 756 757 763 769 772 775 778 782 785 787
754 753 753 754 753 754 755 755 755 755 755 756 757 758 755 753 749 738 729 726 731 733 723 719 722 720 722 722 720 721 720 719 719 717 717 720 726 727 724 724 725 731 742 745 747 752 754 753 750 750 750 745 745 754 762 765 762 758 758 762 772 784 796 802 799 799 797 788 790 793 787 785 778 765 767 768 761 760 759 757 760 765 769 773 777 780 783 786
754 753 753 753 753 754 754 755 755 755 756 757 757 757 754 749 738 729 731 733 733 733 726 721 722 720 721 721 717 717 718 719 718 716 718 721 725 726 725 728 726 726 736 744 747 749 755 757 750 747 749 745 742 746 750 755 759 758 756 756 764 771 782 792 791 791 791 787 793 795 787 782 775 768 771 769 765 765 762 758 758 763 767 772 777 781 783 786
754 753 753 753 753 753 753 755 755 755 757 756 755 754 749 742 735 732 739 741 737 735 728 722 721 720 723 721 715 714 714 716 717 716 718 719 721 722 723 727 727 726 731 741 748 747 750 753 745 742 744 741 744 746 744 750 760 763 759 759 764 760 764 781 787 785 784 784 791 794 787 777 769 766 768 767 768 766 760 758 759 764 768 772 777 781 783 786
754 753 753 753 752 753 753 754 755 755 756 755 754 752 746 742 741 742 746 747 743 740 733 723 716 719 724 721 716 715 712 714 715 717 720 719 719 721 722 725 727 724 725 734 747 748 749 751 745 744 745 740 741 745 743 746 755 764 763 762 763 757 758 777 791 795 790 783 788 794 786 777 770 765 766 768 768 766 762 760 761 765 770 774 778 782 787 791
754 753 753 753 752 753 753 754 755 754 755 754 752 747 742 743 746 747 749 748 745 741 735 724 714 716 721 719 716 714 711 713 714 716 721 721 720 722 722 725 726 723 722 728 740 744 744 749 747 745 746 742 738 740 742 741 744 757 762 757 759 761 762 767 779 794 791 782 790 796 785 779 775 770 769 770 768 767 764 761 763 767 770 775 780 783 788 792
753 753 753 753 752 753 753 754 754 754 754 752 748 743 741 743 746 747 749 748 743 739 734 726 718 714 715 715 715 711 708 712 713 715 720 721 721 720 720 724 725 723 720 721 731 738 739 746 749 742 740 742 740 741 746 746 743 747 749 748 753 763 769 772 777 785 788 787 793 795 789 783 775 770 770 768 765 765 764 762 765 768 770 773 778 782 784 786
752 753 753 753 753 754 754 755 755 754 753 750 746 745 745 744 746 747 747 746 742 737 733 730 725 720 714 710 710 709 708 710 712 714 718 719 720 719 716 720 723 723 721 718 727 736 736 742 748 742 737 740 742 743 747 750 748 746 746 747 752 756 761 768 772 772 776 788 793 791 794 786 766 759 761 758 758 760 761 763 765 767 770 772 774 779 782 784
752 753 754 753 753 754 754 755 755 753 751 749 747 747 746 744 745 745 744 743 740 736 733 732 730 726 720 711 707 707 708 709 709 712 714 714 719 721 717 715 719 723 723 721 727 735 736 739 745 744 743 743 742 741 740 743 747 748 750 754 756 759 758 760 768 770 770 783 790 791 794 779 755 752 753 750 753 756 758 761 764 767 770 771 772 776 780 784
753 754 755 753 753 753 754 754 753 750 748 748 747 746 744 743 743 743 741 740 739 734 730 731 730 729 727 718 707 704 707 708 707 710 712 711 716 721 717 712 715 721 725 725 727 732 735 737 741 745 746 743 738 736 734 736 738 739 745 752 752 755 758 762 774 778 772 777 784 784 780 764 752 756 756 749 750 753 756 760 765 768 769 772 774 775 778 783
754 755 754 753 752 753 754 752 750 750 748 746 745 745 743 742 742 742 739 738 737 733 730 730 729 728 728 722 711 704 704 706 706 707 709 710 711 712 711 709 711 715 721 725 725 727 730 733 738 743 743 740 737 736 733 731 732 735 739 743 745 748 750 756 768 773 773 779 781 778 769 756 755 762 759 752 749 751 755 760 765 769 770 773 776 776 779 783
755 755 752 752 752 752 753 751 750 751 749 744 743 743 742 742 742 741 739 738 735 731 730 729 726 724 722 719 714 705 701 704 706 705 707 708 707 706 706 707 709 711 717 722 723 725 728 731 736 739 740 739 737 737 735 730 733 739 738 737 741 744 744 747 754 759 767 774 773 772 765 754 756 761 755 750 749 751 755 760 766 771 771 774 777 778 782 784
756 755 753 752 751 751 753 754 754 753 748 744 743 742 740 741 741 739 737 737 733 730 730 727 722 721 718 715 713 706 701 704 707 705 705 706 705 706 706 705 706 709 713 718 719 720 727 733 735 738 744 748 745 743 743 738 735 736 737 738 739 741 746 752 755 755 760 765 762 761 758 753 757 759 752 749 750 753 759 761 766 771 773 776 778 779 783 785
756 755 753 752 750 750 753 755 755 753 749 746 744 741 739 738 736 735 735 735 731 729 729 726 722 721 720 717 712 706 702 702 705 705 705 705 706 709 709 706 706 707 708 712 712 714 725 733 732 734 744 750 748 745 743 740 738 736 737 741 740 740 744 749 755 757 758 765 764 754 750 757 763 760 753 752 753 757 762 764 766 771 774 775 778 780 783 786
757 755 755 752 750 750 752 752 754 753 751 749 745 740 738 737 733 732 734 732 729 728 727 725 722 721 720 716 710 706 703 701 703 704 704 705 706 709 710 708 707 707 707 710 711 714 725 731 729 728 733 736 735 736 737 736 737 737 738 740 740 740 740 741 751 754 752 762 765 750 747 759 765 762 757 756 757 760 764 767 768 771 774 775 778 780 784 787
757 758 759 756 753 752 752 752 754 753 751 750 747 741 739 738 734 730 729 727 724 725 725 724 723 720 715 711 706 705 707 705 703 703 704 705 707 710 712 710 709 707 707 709 710 715 724 729 730 729 732 733 733 736 740 736 731 731 733 736 738 740 740 742 748 747 747 757 757 749 753 756 753 757 758 755 757 761 763 767 769 771 774 776 778 781 785 789
758 760 760 758 756 755 752 751 751 751 750 749 747 744 740 737 735 730 727 724 721 722 722 721 721 719 714 709 704 705 708 708 708 708 706 705 708 710 712 713 712 708 709 711 711 713 720 727 731 732 736 741 741 740 742 738 733 730 728 731 735 739 741 741 743 742 742 745 742 743 752 749 743 750 753 750 754 758 761 766 769 772 775 778 780 782 786 790
759 760 759 757 757 755 752 750 750 749 747 745 744 742 738 735 732 727 724 723 721 719 719 718 716 713 711 706 703 707 709 707 709 711 709 707 708 709 711 715 715 710 710 713 714 715 718 723 729 731 733 741 744 742 741 738 736 734 731 730 731 735 737 736 739 745 743 740 741 743 747 746 743 746 749 749 753 757 761 766 769 773 776 779 782 783 786 790
762 761 759 757 756 754 752 751 750 747 744 742 740 738 737 735 730 724 721 720 719 718 718 719 716 712 711 707 704 709 712 708 707 709 710 709 707 708 709 711 712 713 713 714 716 717 718 725 730 727 729 738 741 740 741 738 736 737 739 740 735 735 739 738 743 752 749 745 752 753 748 747 747 746 748 752 755 758 764 767 768 772 775 777 781 783 785 789
764 761 759 758 755 751 751 750 748 745 741 739 738 735 733 731 728 725 721 718 718 718 719 720 718 715 715 712 709 712 713 711 710 709 709 708 706 707 708 706 708 712 714 715 716 715 718 728 732 727 727 736 740 741 741 739 738 738 742 746 741 738 742 743 745 750 744 743 755 757 747 743 744 745 750 754 757 761 765 767 768 770 772 774 778 782 785 789
763 760 759 759 755 750 750 749 745 742 738 736 735 731 728 727 725 723 720 716 715 716 718 719 717 715 716 715 713 714 713 712 710 710 710 710 708 710 711 708 706 707 710 715 718 717 718 724 730 729 728 736 743 741 737 736 738 739 743 749 746 743 744 744 746 748 741 738 745 743 735 736 741 747 753 756 758 760 761 762 764 767 770 772 775 780 786 789
Wind_Speed
15 14 12 12 13 13 14 14 14 14 14 15 15 15 15 16 16 15 15 16 16 17 17 18 18 18 18 18 20 21 25 27 26 21 15 20 18 14 16 13 8 7 4 5 10 6 1 2 3 6 7 4 1 2 4 2 2 3 3 3 5 5 5 5 6 5 1 2 2 2 2 7 9 1 3 3 7 9 9 5 5 6 6 8 13 22 27 24
16 16 14 13 12 13 14 14 14 14 14 14 15 15 15 15 15 16 15 15 16 16 17 18 17 18 18 18 20 22 26 27 22 20 22 22 16 16 20 19 16 16 9 3 7 8 6 3 4 5 4 3 1 1 4 2 3 4 2 4 6 4 3 3 4 3 2 4 7 6 2 4 6 1 2 3 8 11 11 7 7 8 9 12 18 25 26 24
18 17 17 16 14 14 14 14 14 14 14 14 14 14 14 14 15 16 16 15 15 16 17 17 18 17 18 19 19 23 25 21 13 12 12 8 6 11 14 19 21 21 15 7 5 7 7 6 9 7 2 2 1 2 4 3 4 3 2 6 5 3 2 3 4 4 5 5 8 7 4 3 2 1 2 4 9 12 12 10 9 11 13 15 18 23 25 24
18 18 18 18 17 16 16 15 14 15 15 14 14 13 13 14 14 15 15 15 15 15 15 16 17 16 18 19 20 24 20 12 5 2 3 3 1 4 6 10 18 22 18 12 7 5 5 7 10 5 2 3 1 2 5 5 4 3 4 5 2 3 4 4 6 7 6 4 5 5 5 4 2 1 4 8 9 9 10 9 7 12 19 20 20 22 24 23
19 19 19 19 18 18 18 17 16 16 15 14 14 13 13 13 13 14 14 15 15 14 15 16 16 16 18 18 21 22 12 4 1 5 8 7 6 8 10 8 14 22 19 16 11 6 4 7 7 3 2 3 3 4 5 5 3 3 4 2 2 3 4 3 4 6 5 3 3 4 5 4 3 3 7 12 10 4 5 7 4 10 18 20 22 22 22 21
19 19 19 19 19 18 19 19 18 17 16 15 14 13 13 13 13 13 13 14 14 14 14 15 15 16 16 18 21 16 5 3 1 5 10 12 11 13 13 9 14 21 21 18 11 8 5 5 7 5 3 3 6 5 3 4 3 4 3 1 3 4 4 3 2 5 3 2 5 4 4 3 3 5 7 12 7 1 1 6 8 12 15 18 21 21 20 20
20 19 19 19 19 19 19 19 19 18 18 16 15 13 13 12 13 13 13 13 13 13 14 13 15 16 16 18 16 6 2 7 6 1 9 14 14 15 13 6 16 22 22 19 11 9 6 7 7 5 5 4 5 6 3 4 4 6 4 1 4 4 5 6 5 6 3 5 7 4 3 4 6 5 5 8 1 2 4 10 15 15 15 18 19 19 19 19
20 20 20 19 19 19 19 19 19 19 19 18 17 14 12 12 12 13 13 12 12 12 12 13 13 14 16 15 9 3 4 11 13 8 8 12 12 13 11 2 19 24 23 21 15 11 7 9 8 4 5 3 4 7 4 4 5 7 6 2 3 3 5 5 4 7 6 6 6 3 5 6 5 3 6 6 3 5 9 14 18 17 16 17 17 19 18 17
20 20 19 19 20 20 19 19 19 19 19 19 19 16 13 11 11 12 12 11 11 11 11 13 12 13 14 10 4 4 6 11 13 13 12 8 9 9 7 3 19 24 21 22 20 14 9 8 9 5 5 3 6 8 5 6 5 6 7 3 5 5 4 3 4 7 6 4 3 2 3 1 1 4 7 5 6 10 12 15 18 19 18 17 16 17 17 16
20 20 20 19 19 20 20 19 19 19 19 20 19 17 15 12 11 11 11 11 11 11 11 11 11 11 9 5 1 5 5 4 7 8 7 6 9 8 6 4 19 21 17 19 19 15 9 7 7 4 3 3 5 6 4 6 3 3 5 4 7 6 4 2 4 6 3 3 5 5 1 3 1 2 3 5 9 11 14 15 17 19 18 17 16 15 15 15
20 20 20 20 19 19 19 19 19 18 19 19 19 17 17 14 11 10 11 11 10 10 10 9 10 9 6 3 2 6 4 2 4 2 6 12 12 8 8 4 20 20 15 15 16 17 11 7 8 3 1 4 6 4 3 4 2 2 3 3 4 4 3 4 5 5 3 3 5 6 3 2 1 2 3 8 11 12 14 16 17 18 15 15 15 14 13 13
21 20 20 20 19 19 19 19 19 18 18 19 19 18 17 16 12 11 12 11 9 9 9 9 9 8 7 6 10 16 9 7 10 14 17 19 16 11 9 6 19 18 16 13 12 17 11 8 12 5 1 4 6 4 2 3 1 2 2 3 2 1 4 6 4 4 5 3 6 10 4 2 2 1 5 10 12 12 15 16 16 16 14 13 13 12 11 13
22 21 20 19 19 19 19 19 19 19 18 19 19 18 17 17 13 11 12 10 9 9 8 8 8 6 6 5 15 25 22 21 23 26 24 21 18 13 6 8 16 14 15 14 13 17 11 8 10 4 1 3 4 2 2 2 1 2 3 2 2 2 4 4 1 2 5 3 7 9 3 3 3 1 7 12 12 14 15 15 15 14 13 13 11 11 11 12
23 22 21 20 19 19 19 19 19 19 18 18 18 18 17 17 15 11 11 10 8 7 7 7 6 5 5 9 19 25 23 23 27 30 27 21 16 11 5 8 13 11 11 11 13 16 11 7 5 2 1 1 1 1 1 1 1 2 3 0 1 3 2 1 0 5 6 2 4 7 3 3 3 3 10 13 14 17 16 16 16 15 13 12 10 10 10 9
23 22 21 21 20 19 19 19 19 18 18 17 17 18 18 17 16 12 10 9 8 7 7 7 5 4 6 11 18 19 13 12 21 25 23 19 14 7 5 8 12 10 9 8 10 12 11 6 3 2 2 0 1 1 1 1 1 1 3 3 1 2 2 1 0 5 5 2 2 4 3 3 2 6 9 8 10 14 15 16 16 15 14 11 9 10 9 8
23 23 22 21 21 20 19 18 18 18 18 17 17 18 18 17 15 13 11 9 8 6 5 4 3 3 5 7 9 10 7 9 14 13 10 12 15 11 4 6 9 7 8 7 7 9 9 6 3 1 1 2 3 3 3 2 1 1 2 3 2 3 3 1 1 2 3 2 2 3 2 3 3 7 5 5 5 1 8 15 15 14 14 11 9 9 8 8
23 23 23 23 21 20 19 18 17 18 18 17 17 17 17 15 14 13 10 8 7 6 5 3 2 4 7 9 9 8 5 7 10 9 7 8 12 16 9 4 5 6 8 7 7 7 6 5 3 1 1 2 3 4 4 5 4 2 2 2 1 2 3 1 1 1 3 3 4 2 2 2 3 8 8 6 6 2 6 11 12 12 13 11 8 9 9 9
22 22 22 23 22 20 19 18 16 16 17 16 15 16 15 13 13 11 9 7 3 2 5 5 3 3 6 7 7 5 6 11 13 12 11 8 9 18 13 5 6 9 10 6 4 4 3 3 2 3 4 3 4 6 6 5 5 5 5 5 2 2 3 1 0 2 2 2 5 5 3 2 6 9 8 8 10 9 6 4 4 7 10 10 7 8 9 9
22 21 22 22 22 20 19 17 16 16 16 15 13 13 11 8 8 6 7 8 6 3 3 5 7 3 3 3 3 6 13 14 13 12 8 6 9 14 12 7 7 9 9 5 4 4 4 3 3 5 6 6 7 9 7 5 6 6 5 4 4 3 3 1 1 2 2 1 6 6 5 6 10 10 9 8 7 8 8 5 2 3 7 9 7 7 8 8
21 21 21 22 22 20 18 16 15 16 15 13 10 8 6 4 3 3 5 9 9 7 3 5 11 7 8 4 1 10 16 10 5 5 4 5 9 11 7 4 6 6 7 8 6 4 4 5 6 6 8 10 9 8 7 5 6 5 3 3 2 2 2 2 1 1 3 2 3 2 4 9 12 12 11 11 8 8 10 9 7 5 6 8 7 8 9 7
21 22 21 21 20 19 17 15 14 14 13 12 8 5 3 3 3 1 3 7 11 13 9 8 13 12 12 9 4 10 11 7 6 7 8 5 9 12 7 6 8 6 6 8 7 3 4 7 6 6 8 11 8 7 7 6 5 4 3 3 1 2 2 1 1 2 3 2 1 2 5 9 11 12 10 11 11 10 11 11 10 7 5 6 5 4 7 7
21 22 20 19 18 18 17 16 13 12 12 11 9 7 4 4 3 2 1 4 9 15 15 13 12 12 16 20 12 4 4 7 9 9 7 7 9 9 7 8 10 7 5 7 7 5 6 6 5 6 7 7 6 6 8 7 5 4 2 2 2 2 0 1 2 3 4 0 1 2 6 6 7 10 10 11 9 8 7 5 6 6 5 6 7 6 4 4
19 20 18 16 15 15 15 13 11 10 11 9 9 10 5 3 3 1 1 3 6 10 13 13 13 12 16 19 12 6 5 8 7 8 5 8 8 6 9 10 9 8 8 9 9 7 6 6 7 7 8 10 6 5 8 7 4 3 3 3 2 1 1 1 1 3 4 3 1 5 5 3 3 6 7 6 4 4 3 3 3 4 5 7 9 9 5 3
18 17 16 13 11 12 11 10 9 11 12 11 12 12 6 4 3 2 3 3 5 6 11 15 12 10 15 13 8 13 10 7 6 6 4 9 7 4 8 10 9 9 8 9 10 8 4 5 9 9 10 12 9 7 9 7 4 3 4 5 4 2 0 1 1 2 2 4 3 5 5 3 3 6 7 5 3 4 4 4 4 5 7 8 8 9 9 5
16 15 14 11 9 9 8 7 8 11 11 10 12 14 10 3 3 5 3 2 4 3 6 11 8 10 17 11 10 12 8 7 10 8 4 6 7 5 5 5 6 9 10 9 9 8 3 4 11 11 10 11 10 8 9 9 6 3 4 6 5 4 2 0 3 2 2 3 2 1 4 4 1 5 9 8 7 6 6 6 6 7 9 10 8 7 10 11
15 14 13 9 8 7 5 3 5 7 7 7 8 12 10 1 3 9 4 2 4 2 5 7 7 10 14 12 11 9 4 5 11 14 10 7 6 4 5 4 2 6 10 9 5 3 3 5 10 11 10 10 9 7 8 8 7 4 4 6 4 3 3 1 2 2 1 2 1 2 4 3 1 6 10 9 11 11 8 8 10 8 9 9 8 8 10 10
13 12 11 8 6 4 3 1 2 2 4 3 4 11 8 1 6 11 4 2 4 3 6 4 4 9 12 14 15 10 4 2 5 11 13 11 7 3 6 8 4 4 5 5 4 2 5 8 8 9 11 10 8 7 7 8 7 3 4 8 8 5 5 4 2 1 1 0 1 1 2 1 3 5 6 7 12 13 10 10 12 11 11 11 9 10 13 11
12 11 9 7 4 3 3 3 3 2 2 4 9 8 2 3 10 9 3 2 1 3 5 3 5 7 8 14 19 10 2 4 5 7 9 12 8 2 5 9 8 9 6 6 7 2 4 9 10 10 10 7 6 7 8 10 7 3 4 8 9 7 6 5 4 2 1 1 2 1 0 3 2 2 2 7 12 14 14 15 15 13 13 13 11 11 13 14
11 9 8 5 4 4 5 5 4 4 2 4 6 3 3 8 11 3 2 2 1 2 4 5 6 4 6 11 15 10 3 2 2 4 7 8 7 2 3 6 10 12 5 4 7 3 2 8 11 12 9 7 6 7 12 13 5 4 7 7 5 4 3 2 3 2 2 2 4 4 4 5 2 1 3 8 11 13 14 14 16 15 14 14 14 13 13 14
9 7 6 5 4 3 3 5 8 7 5 4 5 3 3 8 6 1 2 1 1 1 3 4 4 5 11 12 10 10 5 1 2 6 5 4 6 3 0 3 6 9 4 3 6 3 2 4 6 7 6 6 7 7 9 10 6 9 9 7 6 4 3 2 1 1 2 4 3 5 6 5 3 2 5 8 11 14 12 10 13 14 14 14 14 13 14 14
8 5 5 5 4 2 2 2 5 7 6 5 5 2 1 4 2 2 4 1 2 2 2 3 5 9 14 13 9 9 6 1 4 9 7 6 7 5 5 5 4 7 6 6 7 3 5 6 4 3 4 6 8 6 3 3 7 10 7 6 6 3 2 2 2 1 4 4 1 2 4 5 5 3 6 11 13 14 14 10 14 17 17 16 14 14 14 12
8 4 4 5 5 4 4 2 3 4 3 2 2 1 2 2 2 3 1 2 1 2 3 3 6 9 13 11 8 10 8 3 4 10 10 9 8 5 7 8 5 7 8 8 8 4 4 4 2 2 6 8 10 8 4 2 6 7 6 8 8 5 4 4 3 3 4 2 2 1 4 4 5 3 4 12 14 11 11 10 13 17 18 17 15 14 13 11
8 5 4 4 5 6 6 4 5 4 4 5 4 1 2 2 2 3 3 3 1 3 5 2 1 6 11 8 6 9 8 5 5 8 9 9 7 5 3 3 4 4 5 7 7 6 4 1 2 5 5 8 12 11 7 5 7 8 8 9 9 6 6 6 4 2 2 2 1 1 3 3 3 2 2 8 10 6 7 7 10 14 16 16 14 12 11 11
6 5 4 3 6 6 6 6 6 5 2 3 3 1 2 3 1 0 1 3 3 3 6 4 2 5 9 5 5 9 6 3 7 9 10 9 9 8 5 4 4 4 6 7 5 7 7 3 5 7 3 7 12 8 5 7 7 5 3 5 6 5 4 5 4 4 4 2 2 2 3 3 3 2 1 6 7 5 6 5 9 12 13 13 13 12 12 12
6 5 4 3 5 5 6 7 6 6 4 2 2 2 2 2 1 2 2 4 4 5 9 6 1 7 7 3 4 9 5 2 7 9 9 10 9 9 8 6 5 4 8 9 3 4 6 2 4 5 3 10 12 3 4 9 7 2 2 3 5 4 3 2 1 2 2 2 2 3 2 2 2 1 1 4 5 4 5 8 11 13 14 14 15 15 12 11
7 5 3 2 3 3 6 7 6 7 5 1 2 2 1 1 2 3 3 4 4 6 11 5 5 6 5 3 4 10 7 1 8 8 5 7 7 7 6 4 3 4 8 7 2 3 4 3 3 2 3 10 12 8 7 8 6 3 3 5 3 2 3 3 1 2 1 3 3 2 2 2 3 2 1 2 4 6 9 11 14 15 16 16 14 12 8 4
6 5 2 1 1 1 5 8 6 5 3 2 3 2 1 1 2 3 2 4 4 7 8 0 4 2 5 5 4 10 9 3 7 7 5 6 5 6 7 4 3 5 6 4 1 1 4 4 2 4 7 6 4 9 10 6 4 6 7 6 4 1 1 1 3 2 2 5 2 1 4 3 3 2 3 4 7 9 11 13 15 16 17 15 11 11 11 7
4 3 2 3 3 3 7 8 5 4 3 2 3 1 3 2 2 3 2 4 4 5 5 1 1 2 5 5 3 10 10 4 7 6 6 6 3 6 10 6 3 5 5 4 2 1 3 4 2 6 11 6 2 7 9 3 0 3 6 7 4 3 3 2 2 3 4 4 2 2 4 3 4 3 4 9 12 12 13 13 15 17 17 13 11 14 17 16
2 1 2 5 3 5 6 6 4 3 2 2 1 1 2 2 0 0 2 4 3 4 4 2 3 3 2 3 5 9 6 5 8 6 5 5 1 4 9 5 4 6 5 5 4 2 1 2 3 4 6 7 6 8 9 6 1 2 5 7 1 1 3 3 1 2 3 3 2 3 3 3 5 5 7 12 13 14 15 14 14 15 14 12 13 15 16 15
1 0 2 4 2 6 4 3 4 2 1 1 1 1 1 2 2 3 3 3 3 3 2 2 3 3 2 1 3 5 2 5 8 4 3 5 2 3 7 5 7 8 5 5 4 2 1 2 3 4 3 6 7 6 7 9 8 5 6 8 4 1 1 3 1 1 1 2 3 3 3 4 4 3 7 10 11 13 15 14 12 12 12 12 14 15 15 13
0 1 2 3 3 7 3 2 2 1 0 0 1 1 2 3 2 3 4 4 4 4 4 4 3 2 2 1 2 3 2 4 6 2 2 6 4 2 5 6 10 9 5 4 4 3 2 2 3 4 4 6 5 3 7 11 11 9 7 6 6 4 3 5 4 1 1 1 2 2 3 4 1 0 3 6 9 12 13 12 11 11 12 12 13 15 15 13
1 2 1 1 4 8 3 2 1 0 0 0 1 2 3 3 3 3 3 4 5 5 4 4 4 4 3 2 1 1 3 4 3 2 3 6 5 3 6 9 11 11 7 4 4 3 2 2 3 3 3 4 2 2 7 14 11 8 7 7 7 5 5 7 6 4 3 1 1 1 2 2 1 2 4 5 8 12 13 11 10 11 12 13 13 14 14 14
2 1 1 1 2 6 2 2 1 1 1 1 2 3 3 3 2 2 2 3 3 3 3 3 4 4 4 4 3 1 3 2 1 2 4 5 5 3 7 11 11 12 8 4 4 4 2 2 3 3 3 2 1 2 4 10 9 7 7 8 8 6 3 3 3 5 6 4 3 2 2 1 1 3 3 6 10 12 12 11 12 12 12 12 14 14 13 14
2 1 2 1 1 4 1 1 1 3 3 3 3 4 4 4 4 4 4 3 3 2 2 3 3 3 3 3 3 3 1 1 1 1 2 4 3 1 6 12 12 12 8 4 5 5 2 1 3 5 6 4 4 4 4 8 8 7 5 6 8 7 5 3 2 4 5 4 4 4 4 1 2 2 4 9 13 14 11 11 13 13 12 12 12 12 12 13
2 1 1 2 1 1 1 1 1 3 5 5 6 5 4 4 5 6 6 6 5 4 3 3 3 3 4 3 3 2 1 1 1 1 1 2 1 2 5 9 10 10 8 6 6 5 2 2 3 5 7 7 7 5 4 5 4 2 3 7 9 10 10 5 2 4 6 3 3 5 4 1 2 2 7 10 12 14 12 11 13 13 13 13 13 12 13 14
1 1 2 2 1 1 1 1 1 3 4 5 5 4 4 3 3 5 8 7 7 7 5 4 4 4 4 4 1 1 2 3 2 2 1 3 2 2 3 6 6 8 9 10 9 5 1 2 2 2 3 4 4 2 1 5 7 6 6 9 11 11 11 7 3 4 5 4 4 5 2 3 3 6 10 11 12 13 13 13 13 13 13 13 13 13 13 12
1 1 2 2 1 1 0 1 1 2 3 3 3 3 3 4 5 3 6 5 5 7 5 4 3 3 3 3 1 3 2 3 3 4 3 2 2 2 2 3 4 7 10 11 9 5 2 2 3 3 2 1 1 1 1 4 10 11 10 11 12 10 10 9 5 4 5 5 5 4 3 5 7 11 14 14 14 13 13 13 12 12 12 10 12 15 15 14
1 1 0 2 2 2 1 2 3 4 5 4 2 2 4 5 6 3 4 4 3 5 4 2 2 5 6 5 2 3 2 2 2 3 2 2 3 3 3 1 1 4 7 8 6 3 3 3 3 3 3 1 1 1 3 3 4 7 10 12 13 11 11 12 8 5 7 6 5 5 9 8 6 12 17 16 15 14 14 13 11 12 12 11 12 15 16 15
2 0 1 1 2 3 4 6 7 8 7 5 3 3 3 5 6 4 2 3 2 4 5 1 2 4 5 3 2 3 2 2 2 2 2 2 2 3 3 2 1 1 3 6 4 1 2 4 3 4 4 4 3 1 3 4 3 3 5 9 11 13 13 11 7 4 6 4 2 5 12 8 2 8 13 11 11 12 12 12 12 14 14 13 13 15 16 16
2 2 2 2 3 4 5 5 6 6 5 4 3 3 3 3 4 6 3 2 3 2 2 1 3 4 5 5 5 5 2 1 2 2 3 3 2 2 1 2 3 1 2 5 4 1 2 3 3 3 3 3 4 4 4 3 5 4 2 2 6 10 9 6 5 4 3 1 1 4 8 5 1 6 10 9 9 10 12 14 15 15 15 16 16 16 18 18
4 5 4 4 3 3 3 4 4 4 3 2 2 2 2 2 5 7 4 2 1 3 1 2 4 2 4 6 6 6 3 1 1 0 2 2 2 1 1 2 5 5 4 3 3 2 2 2 2 3 4 1 3 5 5 4 6 5 2 3 6 7 5 3 3 4 5 5 6 5 4 3 4 9 12 11 11 13 15 16 15 15 17 19 19 17 17 18
8 5 4 4 3 1 3 4 4 3 4 4 5 7 6 6 8 8 3 1 1 1 1 2 3 1 3 5 4 3 3 4 3 2 2 2 1 2 1 1 3 5 6 4 2 1 3 3 2 3 5 2 2 2 2 4 6 4 1 2 4 2 3 3 2 3 5 6 7 5 2 2 8 13 13 14 16 17 17 16 15 15 17 19 20 19 17 15
Wind_Direction
300 292 291 295 297 300 302 303 305 308 311 311 313 314 316 318 319 321 322 321 324 327 326 325 324 326 327 324 327 324 319 317 314 312 280 256 260 254 252 262 252 223 241 254 224 221 127 140 133 140 149 146 178 173 162 154 139 179 188 197 212 207 200 180 183 189 219 340 270 308 9 310 311 238 160 170 170 147 134 107 92 93 65 97 118 130 141 147
315 306 295 290 291 295 296 297 299 303 306 307 310 311 313 315 315 319 319 319 322 324 326 326 323 325 328 327 327 322 319 317 309 290 270 266 271 262 254 253 251 251 255 242 213 197 174 170 148 146 145 159 190 163 175 165 175 192 152 210 222 195 185 184 191 206 238 292 304 310 346 307 308 42 154 175 160 149 143 137 125 111 100 115 129 137 142 146
321 319 311 303 296 289 288 291 293 297 301 302 305 306 310 311 312 316 317 319 322 323 324 326 324 324 328 328 324 322 321 317 301 271 274 283 270 262 256 249 245 248 245 227 204 193 201 190 160 153 134 163 171 168 181 169 184 192 176 224 225 177 212 218 211 238 237 271 301 306 332 309 293 133 195 170 165 171 165 151 149 152 142 139 142 142 144 146
321 320 317 315 309 298 288 285 286 291 295 296 300 302 305 307 310 312 314 317 319 322 324 326 326 323 327 327 321 322 322 308 272 188 38 38 313 320 307 261 235 235 234 215 202 205 214 175 154 147 148 162 152 170 181 180 181 171 197 226 185 152 220 215 208 243 253 257 276 298 319 305 313 260 180 156 169 197 189 170 172 174 158 149 150 147 148 149
320 317 316 314 313 310 300 290 283 283 287 290 294 297 301 304 306 310 312 312 316 321 323 325 324 324 327 322 321 324 318 281 179 80 32 9 341 333 326 298 226 220 217 205 203 199 187 154 142 131 152 164 157 168 189 186 168 168 203 230 127 161 221 224 209 238 249 241 252 288 304 311 316 258 179 173 183 200 201 194 191 172 159 153 152 149 150 152
317 315 314 312 312 311 306 301 293 284 280 283 287 290 296 300 301 306 307 307 315 319 321 324 324 326 327 322 323 321 288 264 87 73 17 2 345 335 327 295 218 204 198 193 184 175 179 155 156 162 162 169 174 180 182 175 183 211 204 197 213 214 236 258 256 243 226 256 275 279 300 321 278 261 194 189 195 26 207 169 147 154 155 153 150 149 154 156
318 315 312 311 310 308 308 305 303 296 285 278 279 283 286 293 298 299 301 305 312 316 320 323 323 325 327 329 327 319 256 278 264 230 1 356 341 340 344 282 202 187 181 177 163 166 176 168 171 163 165 168 181 191 164 152 191 231 221 192 225 224 239 250 260 267 261 261 272 279 301 281 252 260 194 192 184 44 156 135 135 146 150 151 152 155 158 158
317 315 313 311 308 307 307 305 305 304 297 284 274 275 278 282 289 293 297 304 308 312 317 318 323 324 328 339 341 323 257 258 257 261 313 344 352 353 359 198 183 176 173 173 167 164 161 171 173 153 178 179 175 186 163 153 185 227 227 204 234 225 232 242 258 269 267 257 260 262 286 281 247 198 155 171 126 124 140 133 137 142 147 155 158 159 159 157
313 313 313 312 309 307 306 305 304 302 304 297 280 270 270 274 280 289 294 299 305 309 312 314 319 322 327 346 358 288 260 250 257 266 282 329 8 1 353 185 178 174 172 175 170 165 165 178 178 178 195 172 175 179 170 191 196 217 218 215 247 255 254 248 258 258 259 254 213 214 269 336 172 164 151 158 142 134 136 139 140 143 152 159 159 157 158 160
309 309 310 310 310 308 305 303 302 301 302 302 295 276 265 267 271 279 289 294 302 305 305 309 313 318 329 358 356 266 268 260 247 248 271 331 1 3 352 229 187 178 170 168 169 170 175 181 176 186 189 156 175 166 159 194 175 169 198 222 241 259 278 248 254 250 256 255 203 196 186 111 108 205 181 163 149 142 139 143 146 150 157 158 155 155 161 163
305 304 305 306 306 307 306 302 300 301 299 299 304 290 268 260 261 270 285 291 296 299 301 305 309 309 304 330 285 249 251 245 218 249 312 321 326 336 344 240 190 186 172 164 176 180 176 174 164 160 184 161 166 160 171 187 141 140 172 227 233 258 266 217 252 251 232 256 198 166 136 127 209 257 201 160 152 151 145 150 155 155 154 153 153 155 162 162
300 299 300 301 303 304 304 304 300 299 299 297 300 300 279 258 254 266 278 286 290 293 300 302 302 295 285 277 243 236 247 274 278 294 298 303 306 306 320 228 192 193 181 167 180 182 175 166 166 167 204 158 154 161 187 164 131 140 159 247 243 296 251 210 241 239 200 215 156 150 150 183 210 246 182 159 155 158 152 157 160 155 153 150 150 154 161 163
296 296 297 297 299 300 301 303 301 298 298 297 296 302 291 264 248 255 271 279 282 287 296 295 292 283 278 266 247 252 270 287 291 292 284 286 294 296 303 202 193 204 199 183 176 178 175 158 162 164 139 167 156 143 145 130 158 161 148 268 266 277 247 202 224 197 188 198 158 166 190 182 188 268 184 165 160 163 159 163 162 155 155 148 143 146 149 162
292 293 293 294 294 296 298 299 300 298 294 296 296 297 297 274 247 241 261 269 271 283 290 289 289 275 258 260 267 274 286 290 285 278 271 276 289 292 277 198 192 208 211 187 169 176 181 152 126 123 185 210 151 140 117 87 58 162 152 169 252 236 217 152 153 184 185 171 170 201 231 156 158 217 191 173 168 169 164 166 163 154 154 147 136 137 134 150
289 289 288 289 290 291 295 296 298 298 293 294 295 295 298 280 247 231 246 257 264 276 284 291 284 276 280 272 277 288 296 286 273 268 268 269 267 274 273 207 193 198 193 173 162 176 185 162 121 169 200 87 167 186 140 110 61 98 183 178 158 217 226 342 119 204 210 125 134 228 213 122 166 201 189 174 174 176 166 163 161 155 153 145 133 139 134 134
289 286 283 283 284 285 288 291 294 296 293 292 292 293 295 281 249 228 236 251 266 270 274 289 246 219 271 279 291 298 276 258 269 278 284 262 238 232 233 178 174 177 169 159 152 159 165 158 149 181 168 150 190 170 125 164 143 93 216 184 149 195 221 336 104 260 286 139 138 261 197 120 189 185 146 75 50 6 181 164 159 159 157 149 138 145 143 134
294 288 283 279 278 279 280 282 288 293 292 290 292 294 294 278 241 223 235 247 260 254 236 251 219 209 251 279 300 299 280 271 283 297 297 275 234 218 208 151 145 139 129 124 128 135 141 158 165 152 149 160 175 169 177 194 175 141 186 176 169 196 205 205 142 335 324 182 174 226 218 108 153 148 124 118 106 105 209 170 158 167 163 154 139 146 150 140
300 293 287 279 275 275 276 278 283 288 291 291 295 298 294 266 230 221 229 221 211 214 224 237 236 226 238 266 291 306 326 308 300 297 285 278 231 209 198 160 137 132 121 114 128 140 148 173 174 155 165 174 172 183 196 183 163 163 168 177 187 191 209 218 122 21 355 207 174 186 205 107 130 130 130 167 159 156 177 148 145 170 167 161 140 143 153 141
304 299 291 283 274 271 272 275 279 285 288 289 294 297 288 253 225 227 211 186 161 168 211 203 195 222 301 255 252 319 324 307 291 287 269 232 203 199 189 159 139 141 141 144 166 171 158 146 165 178 176 173 177 190 193 166 157 160 162 178 174 185 207 203 267 306 345 169 166 187 186 133 144 150 150 165 159 154 158 150 150 151 165 170 153 148 153 142
309 303 295 286 275 267 266 269 275 282 284 286 291 285 264 222 216 234 189 184 198 211 213 173 191 238 303 294 325 335 328 316 294 277 242 191 172 172 177 156 134 151 165 157 158 169 171 174 185 183 170 169 176 180 168 145 144 135 128 155 150 200 187 101 190 309 338 198 157 166 156 144 159 168 164 158 155 168 175 176 174 165 167 161 153 152 146 135
313 308 299 287 275 263 258 261 267 276 280 280 274 251 229 211 217 207 170 207 221 225 236 216 202 229 266 274 325 6 349 320 308 281 254 224 169 163 175 175 160 167 168 147 133 129 186 195 186 171 165 167 166 151 131 116 122 125 137 154 145 212 177 66 256 334 329 218 102 75 150 153 166 169 168 166 168 183 189 189 185 181 157 111 102 131 131 119
315 314 305 289 275 260 252 253 257 268 274 271 254 238 237 218 197 68 70 245 233 224 235 239 229 242 259 263 269 350 348 287 293 288 252 207 192 185 171 173 174 163 148 145 134 144 194 202 170 160 158 142 127 139 142 134 133 126 130 148 160 201 280 266 237 350 345 211 120 175 155 147 164 168 173 178 178 184 186 190 186 175 139 100 76 59 66 102
315 317 312 298 277 260 252 252 257 265 265 254 238 235 230 178 148 78 209 275 261 220 217 228 231 236 250 257 247 207 229 242 258 283 240 183 198 196 170 174 170 153 157 169 167 165 187 190 161 149 143 132 123 147 150 145 155 154 162 183 176 160 3 184 166 14 14 30 114 157 124 104 161 163 173 182 167 149 130 91 112 153 142 130 113 92 71 38
315 317 316 306 283 261 258 264 262 262 259 246 238 234 212 140 124 170 195 247 274 228 207 213 213 218 235 243 200 185 213 222 218 263 234 185 187 171 171 170 155 158 172 170 168 168 156 147 148 147 152 148 141 153 158 161 176 178 188 206 199 168 121 108 353 340 80 56 79 138 118 113 187 182 183 198 185 156 147 121 127 160 150 138 129 118 116 104
313 317 317 309 290 269 266 272 260 261 258 244 243 233 212 185 178 199 206 259 262 241 211 204 195 222 225 207 166 175 203 226 219 237 249 198 189 166 162 167 163 171 166 150 157 171 152 130 143 149 161 155 144 158 173 172 170 183 207 215 210 174 150 74 350 339 151 119 80 161 180 162 196 215 196 198 207 192 179 179 181 177 164 153 138 124 128 130
312 317 321 315 293 265 258 264 249 258 248 232 235 205 186 182 199 194 192 288 256 203 174 173 173 206 199 171 159 166 185 224 215 219 228 224 211 187 160 164 177 164 153 142 155 176 142 147 156 154 158 157 152 164 184 179 168 183 197 190 186 153 143 176 333 338 199 157 61 299 237 165 143 218 202 198 210 203 186 194 204 190 174 173 153 134 137 139
312 314 321 323 298 244 217 261 264 256 225 198 160 161 164 287 200 192 194 279 257 162 143 160 181 179 167 161 162 165 188 155 163 200 215 216 220 238 186 174 146 144 148 143 171 186 128 147 166 156 155 166 168 169 184 183 170 173 173 163 167 173 180 191 217 252 288 340 343 339 303 209 166 198 202 206 213 214 205 202 209 201 185 182 172 154 148 146
309 309 312 318 304 239 226 273 291 259 196 125 122 136 149 189 182 193 219 232 211 119 130 170 196 162 147 165 169 173 193 125 139 179 193 199 205 238 198 183 151 143 160 174 175 152 126 160 170 160 162 177 173 154 163 176 175 167 161 163 170 184 195 197 206 221 53 248 228 124 291 235 178 121 194 204 210 220 221 212 209 203 192 185 180 173 157 146
308 304 306 306 295 273 254 258 261 243 220 137 130 78 28 155 165 192 246 191 156 127 123 146 176 154 130 160 180 200 216 144 181 149 149 183 200 229 201 173 146 139 152 195 166 124 164 177 169 164 173 179 160 145 162 177 180 138 141 137 131 132 134 179 212 181 112 223 227 169 192 224 204 124 183 194 207 223 226 216 210 199 190 191 184 175 160 150
309 294 300 291 278 285 250 243 253 245 238 216 209 330 32 149 164 194 173 221 310 113 113 146 167 150 144 154 185 215 219 190 126 124 127 163 178 210 47 104 134 136 128 172 160 134 94 143 157 171 179 163 147 147 171 177 144 128 135 123 108 102 91 92 104 120 170 225 217 175 193 223 232 194 183 197 206 214 217 205 198 192 184 192 190 176 165 158
320 295 291 279 263 243 213 249 262 242 232 235 233 263 102 143 214 200 153 252 308 60 81 157 140 137 154 162 178 201 215 267 152 151 151 158 169 181 152 139 140 135 140 166 170 143 98 128 158 178 162 135 131 141 178 177 140 140 144 141 138 126 121 129 107 166 216 220 153 161 185 206 229 214 200 218 217 212 215 194 179 183 183 189 191 180 170 162
336 305 270 265 247 225 228 191 134 160 167 157 154 164 169 150 225 217 185 321 278 7 17 123 141 153 169 177 174 177 183 188 180 168 157 158 170 179 171 169 157 153 167 170 167 146 116 144 161 152 166 156 145 151 164 175 169 167 157 158 167 163 164 189 186 192 222 210 73 115 171 193 238 241 213 228 228 224 229 207 178 179 184 186 183 174 168 164
346 320 280 256 240 238 239 205 167 147 110 117 125 136 228 176 188 230 282 331 29 347 346 28 155 173 172 181 175 170 174 168 174 171 157 153 159 170 184 163 137 141 155 155 158 159 152 184 176 155 167 173 168 169 171 174 181 181 169 170 179 170 168 186 182 179 221 197 52 82 175 196 241 238 237 243 242 256 270 230 179 173 180 180 175 168 165 166
350 324 309 271 249 248 238 219 216 208 156 130 139 182 206 179 193 260 347 342 354 330 324 342 356 169 173 190 168 163 174 182 176 170 159 157 165 177 182 170 153 104 114 148 164 172 173 185 179 167 147 174 182 182 158 144 158 175 159 170 184 175 172 180 179 190 190 151 88 120 187 201 188 161 286 273 270 283 276 222 168 163 168 166 165 166 166 167
358 339 333 298 271 257 234 221 215 201 192 184 172 203 211 177 329 13 43 344 340 333 320 316 142 153 176 223 166 172 202 208 173 173 167 168 172 174 169 170 179 134 141 162 163 166 171 140 167 170 134 170 178 166 113 134 150 166 109 159 194 185 157 138 147 179 162 141 138 171 226 250 222 218 295 273 263 228 202 174 157 156 154 156 165 166 161 159
1 1 350 300 286 259 221 195 177 179 190 214 192 207 255 65 10 14 28 345 324 314 318 302 157 147 177 202 165 183 216 206 162 172 168 166 168 165 152 147 177 162 154 160 131 151 157 122 156 157 146 179 175 154 162 171 159 146 170 177 171 119 112 121 112 54 109 195 174 167 220 258 256 247 184 205 209 183 174 166 159 154 151 157 163 152 127 105
359 357 358 7 345 226 180 163 166 192 212 251 219 203 11 32 35 38 14 324 291 282 309 296 156 163 178 184 165 178 193 174 162 174 162 160 167 161 154 147 174 168 151 143 113 187 159 127 143 170 171 195 184 158 176 203 153 149 184 170 120 71 55 118 165 114 171 201 165 153 206 205 225 213 151 183 195 184 175 168 162 157 154 152 145 140 141 142
354 337 359 39 47 152 160 161 186 229 244 258 223 174 12 7 63 60 335 306 292 285 312 18 23 333 168 174 165 172 183 172 160 163 157 168 183 162 158 157 183 171 146 135 133 209 188 140 144 196 184 169 140 170 176 203 263 156 168 156 143 205 191 148 171 158 178 190 144 168 211 226 224 207 187 197 199 192 180 167 162 160 157 150 143 154 162 160
11 339 25 29 67 141 155 173 210 245 243 260 264 59 8 343 188 355 304 295 293 295 315 6 4 340 192 177 156 166 182 167 156 150 157 175 217 174 167 154 173 177 149 148 161 163 202 163 156 201 188 151 158 194 184 169 123 60 146 164 194 295 168 160 165 162 183 183 153 161 186 237 232 216 209 202 195 191 183 171 163 156 154 155 154 159 164 161
51 71 40 18 101 162 173 200 223 255 232 256 334 14 341 314 255 255 258 268 288 284 286 327 353 342 308 293 149 160 159 149 153 140 156 166 125 179 190 162 157 167 148 146 169 160 176 208 165 151 162 167 179 202 184 162 157 157 167 176 172 60 123 162 132 48 172 172 165 161 185 232 234 217 217 204 191 191 188 179 168 154 155 161 157 156 157 154
46 94 62 6 176 177 194 249 233 274 223 229 314 307 327 325 284 259 243 234 248 253 259 277 282 287 303 312 144 150 126 137 149 113 139 164 149 186 206 175 155 156 140 138 165 179 186 200 163 150 174 187 166 127 158 169 174 176 174 176 173 157 152 172 176 151 67 147 172 176 206 218 198 334 250 210 185 186 188 181 166 151 155 159 157 154 148 141
58 99 122 2 170 173 197 293 247 302 272 296 325 285 302 312 282 269 260 239 240 239 247 264 250 243 248 249 259 159 140 131 143 134 137 164 173 179 179 169 157 153 150 153 172 184 169 136 149 156 172 180 129 80 179 180 175 175 181 181 178 174 176 186 186 158 143 158 172 206 231 194 96 330 270 214 178 175 179 174 158 151 153 152 152 149 142 139
53 61 210 350 167 176 206 317 329 352 296 271 294 257 252 276 264 255 259 248 242 226 229 250 234 227 228 231 263 227 150 134 142 136 130 159 185 191 165 160 157 158 161 164 170 173 163 144 153 139 118 130 79 29 188 179 168 179 197 185 176 180 178 178 161 150 169 182 170 201 219 147 38 309 244 183 165 163 168 160 147 149 150 145 143 141 137 140
354 282 233 339 212 187 207 329 325 336 331 314 295 259 232 232 234 240 243 233 229 232 257 254 227 230 260 248 251 249 176 150 182 123 105 155 181 122 150 159 160 163 173 183 171 175 186 179 169 151 139 149 156 139 172 191 190 192 190 176 174 162 127 101 110 160 190 193 179 209 212 130 4 326 171 164 160 157 159 154 145 147 148 141 139 137 136 140
310 276 248 305 330 144 144 41 331 320 330 325 303 284 265 240 222 229 243 244 235 232 250 263 257 278 290 281 258 258 31 67 159 159 80 140 108 52 141 165 165 165 178 184 167 159 158 163 174 167 161 168 177 175 175 178 181 193 167 168 176 168 160 160 145 176 199 183 176 219 210 118 335 232 162 160 160 152 150 152 147 146 150 146 143 141 141 145
325 66 326 311 15 53 168 190 314 305 324 326 309 300 286 270 260 234 231 242 236 225 238 267 278 277 254 239 222 102 69 46 84 148 136 134 114 53 148 173 172 171 173 166 155 139 109 163 165 153 158 167 173 177 140 148 167 187 178 171 181 182 177 172 163 189 187 149 180 226 194 136 216 203 171 162 163 154 145 150 148 146 151 149 144 144 142 145
46 61 351 340 331 342 262 219 236 250 286 300 309 318 281 270 301 253 207 221 219 206 223 246 246 266 247 216 145 92 83 42 89 147 151 117 92 55 98 160 180 185 174 162 155 137 113 186 171 111 91 113 164 156 167 182 187 186 176 174 184 183 176 181 194 180 144 151 203 204 161 181 199 193 182 171 167 160 150 152 150 144 147 145 140 142 140 138
33 69 320 329 305 296 293 280 277 272 267 254 237 269 260 266 293 277 205 239 238 202 211 223 225 263 270 244 192 105 113 83 88 148 146 106 113 96 86 105 215 208 178 164 161 140 145 190 187 134 109 92 299 221 198 199 194 185 179 178 177 175 180 189 195 171 160 194 231 170 174 200 194 187 191 181 170 165 154 148 143 138 141 141 140 141 138 138
9 29 234 270 265 263 273 284 296 294 280 264 235 240 268 281 296 310 266 272 274 196 197 239 310 290 293 265 159 104 114 125 117 165 162 111 118 118 113 127 204 261 166 159 160 151 186 183 165 150 123 81 39 22 171 171 159 167 190 186 175 176 185 188 182 166 170 208 281 171 182 202 191 181 189 176 159 155 144 140 143 143 143 145 147 147 144 147
348 314 300 292 264 263 274 282 292 291 280 265 242 239 252 264 310 341 324 279 355 50 162 288 326 340 3 20 83 94 79 89 108 151 168 145 134 137 139 151 156 130 137 162 167 197 219 183 145 159 151 82 47 46 72 143 154 140 160 192 170 169 176 175 154 148 154 133 46 166 182 206 234 170 166 146 132 137 144 151 154 152 153 153 154 155 154 154
323 288 302 315 295 288 297 293 283 285 294 290 272 285 282 287 339 345 315 244 4 34 54 309 292 306 15 26 57 70 46 354 53 153 195 176 141 146 218 181 160 154 150 164 166 160 196 163 110 176 191 152 37 37 46 90 124 125 139 177 168 162 160 149 143 173 180 147 126 141 180 213 180 159 153 144 141 146 155 161 160 160 162 161 160 161 159 157
338 302 311 311 287 304 328 312 301 310 335 333 327 332 334 340 349 352 338 267 288 89 71 299 266 218 42 18 18 14 316 281 280 282 247 218 98 84 117 148 142 152 156 157 151 136 159 146 128 185 190 153 28 6 38 112 134 140 164 178 172 161 145 137 131 213 198 155 139 156 199 148 151 154 153 153 159 165 168 169 167 166 167 167 164 161 158 156